GW0865 Weather Reports


time (UTC)temp
C
wind
direction
speed
KPH
gust
KPH
rain 1hr
cm
rain 24hr
cm
rain mn
cm
humidity
%
barometer
mb
20260902014553 15 241 1.6 8.0 0.00 0.00 0.00 88 1018.0
20260902013101 15 236 1.6 9.7 0.00 0.00 0.00 88 1017.9
20260902011551 13 0 0.0 0.0 0.00 0.00 0.00 89 1018.1
20260902010053 13 0 0.0 0.0 0.00 0.00 0.00 89 1018.0
20260902004550 13 0 0.0 1.6 0.00 0.00 0.00 90 1018.3
20260902003057 13 0 0.0 1.6 0.00 0.00 0.00 90 1018.4
20260902001554 13 0 0.0 1.6 0.00 0.00 0.00 90 1018.4
20260902000049 13 0 0.0 0.0 0.00 0.00 0.00 90 1018.5
20260901234547 13 0 0.0 0.0 0.00 0.00 0.00 90 1018.4
20260901233052 13 0 0.0 0.0 0.00 0.00 0.00 90 1018.3
20260901231557 13 0 0.0 0.0 0.00 0.00 0.00 89 1018.5
20260901224551 13 0 0.0 0.0 0.00 0.00 0.00 88 1018.5
20260901223052 13 173 0.0 0.0 0.00 0.00 0.00 87 1018.5
20260901221605 13 0 0.0 0.0 0.00 0.00 0.00 85 1018.5
20260901220046 14 0 0.0 0.0 0.00 0.00 0.00 83 1018.4
20260901214555 15 0 0.0 0.0 0.00 0.00 0.00 81 1018.6
20260901213054 15 173 0.0 1.6 0.00 0.00 0.00 80 1018.5
20260901211551 16 0 0.0 4.8 0.00 0.00 0.00 78 1018.7
20260901210046 16 248 1.6 8.0 0.00 0.00 0.00 78 1018.6
20260901204553 16 236 1.6 6.4 0.00 0.00 0.00 78 1018.6
20260901203054 16 265 3.2 8.0 0.00 0.00 0.00 78 1018.6
20260901201550 16 244 4.8 9.7 0.00 0.00 0.00 79 1018.4
20260901200052 16 231 1.6 8.0 0.00 0.00 0.00 79 1018.5
20260901194600 16 222 1.6 6.4 0.00 0.00 0.00 79 1018.4
20260901193048 16 264 1.6 6.4 0.00 0.00 0.00 79 1018.5
20260901191554 16 236 1.6 8.0 0.00 0.00 0.00 79 1018.5
20260901190050 17 264 3.2 6.4 0.00 0.00 0.00 78 1018.4
20260901184546 17 235 3.2 6.4 0.00 0.00 0.00 78 1018.4
20260901183117 17 216 1.6 8.0 0.00 0.00 0.00 79 1018.4
20260901181552 17 246 3.2 9.7 0.00 0.00 0.00 79 1018.4
20260901180051 17 205 3.2 12.9 0.00 0.00 0.00 78 1018.5
20260901174548 17 222 4.8 14.5 0.00 0.00 0.00 77 1018.5
20260901173129 17 195 6.4 20.9 0.00 0.00 0.00 76 1018.5
20260901171557 18 186 12.9 24.1 0.00 0.00 0.00 73 1018.5
20260901170058 18 215 8.0 17.7 0.00 0.00 0.00 70 1018.2
20260901164550 19 237 8.0 16.1 0.00 0.00 0.00 69 1018.0
20260901163113 19 225 8.0 19.3 0.00 0.00 0.00 68 1018.2
20260901161603 19 242 8.0 22.5 0.00 0.00 0.00 67 1018.2
20260901160054 19 151 8.0 19.3 0.00 0.00 0.00 69 1017.9
20260901154605 20 226 11.3 22.5 0.00 0.00 0.00 67 1018.0
20260901153048 20 175 6.4 17.7 0.00 0.00 0.00 60 1017.9
20260901151553 20 263 9.7 19.3 0.00 0.00 0.00 60 1018.0
20260901150057 20 280 6.4 17.7 0.00 0.00 0.00 59 1017.9
20260901144548 20 194 6.4 14.5 0.00 0.00 0.00 59 1018.0
20260901143054 20 261 6.4 20.9 0.00 0.00 0.00 60 1018.0
20260901141607 20 267 11.3 17.7 0.00 0.00 0.00 58 1018.3
20260901140052 20 293 1.6 14.5 0.00 0.00 0.00 61 1018.1
20260901134551 20 250 6.4 14.5 0.00 0.00 0.00 60 1018.3
20260901133049 20 269 4.8 16.1 0.00 0.00 0.00 60 1018.3
20260901131551 20 229 9.7 17.7 0.00 0.00 0.00 57 1018.4
20260901130054 20 260 8.0 16.1 0.00 0.00 0.00 58 1018.5
20260901124552 20 255 4.8 11.3 0.00 0.08 0.00 58 1018.4
20260901123051 20 0 1.6 14.5 0.00 0.08 0.00 56 1018.5
20260901121548 20 302 11.3 19.3 0.00 0.08 0.00 56 1018.8
20260901120105 19 230 6.4 16.1 0.00 0.08 0.00 60 1018.9
20260901114551 19 242 8.0 20.9 0.00 0.08 0.00 59 1018.6
20260901113049 18 200 9.7 19.3 0.00 0.08 0.00 57 1018.6
20260901111603 18 246 8.0 19.3 0.00 0.08 0.00 60 1018.7
20260901110054 18 266 8.0 20.9 0.00 0.08 0.00 60 1018.8
20260901104550 18 323 4.8 20.9 0.00 0.08 0.00 65 1018.9
20260901103100 17 240 6.4 19.3 0.00 0.08 0.00 69 1019.1
20260901101606 18 165 6.4 16.1 0.00 0.08 0.00 69 1019.1
20260901100100 17 265 4.8 12.9 0.00 0.08 0.00 71 1019.3
20260901094546 17 224 9.7 19.3 0.00 0.08 0.00 69 1019.5
20260901093053 16 264 4.8 14.5 0.00 0.08 0.00 73 1019.6
20260901091551 16 0 4.8 14.5 0.00 0.08 0.00 76 1019.5
20260901084621 15 226 6.4 14.5 0.00 0.08 0.00 80 1019.6
20260901083053 15 230 6.4 12.9 0.00 0.08 0.00 79 1019.5
20260901081551 14 200 3.2 12.9 0.00 0.08 0.00 83 1019.5
20260901080108 13 222 4.8 11.3 0.00 0.08 0.00 85 1019.5
20260901074603 13 239 1.6 8.0 0.00 0.08 0.00 89 1019.3
20260901073051 12 0 0.0 6.4 0.00 0.08 0.00 92 1019.2
20260901071556 12 0 0.0 0.0 0.00 0.08 0.00 96 1019.2
20260901070049 11 0 0.0 1.6 0.00 0.08 0.00 97 1019.1
20260901064548 11 0 0.0 0.0 0.00 0.08 0.00 98 1018.9
20260901063102 9 0 0.0 0.0 0.00 0.08 0.00 98 1019.1
20260901061554 8 0 0.0 0.0 0.00 0.08 0.00 97 1019.1
20260901060058 8 0 0.0 0.0 0.00 0.08 0.00 97 1018.8
20260901054554 8 0 0.0 0.0 0.00 0.10 0.00 97 1018.8
20260901053102 8 0 0.0 0.0 0.00 0.10 0.00 97 1018.6
20260901051548 8 0 0.0 0.0 0.00 0.10 0.00 97 1018.6
20260901050055 8 0 0.0 0.0 0.00 0.10 0.00 97 1018.5
20260901044555 8 0 0.0 0.0 0.00 0.10 0.00 96 1018.4
20260901043052 8 0 0.0 0.0 0.00 0.10 0.00 96 1018.5
20260901041613 8 0 0.0 0.0 0.00 0.10 0.00 96 1018.5
20260901040133 8 0 0.0 0.0 0.00 0.10 0.00 96 1018.3
20260901034553 9 0 0.0 0.0 0.00 0.10 0.00 96 1018.3
20260901033051 9 0 0.0 0.0 0.00 0.10 0.00 96 1018.3
20260901031551 9 0 0.0 0.0 0.00 0.10 0.00 96 1018.2
20260901030103 9 0 0.0 1.6 0.00 0.10 0.00 96 1018.1
20260901024555 9 0 0.0 1.6 0.00 0.10 0.00 95 1018.2
20260901023057 10 0 0.0 0.0 0.00 0.10 0.00 96 1018.3
20260901021547 10 0 0.0 1.6 0.00 0.10 0.00 95 1018.3
20260901020054 10 0 0.0 0.0 0.00 0.10 0.00 95 1018.3